Weather History for Hill City, KS

Change the Weather History Date:

Saturday, February 16, 2013

  Actual Average Record
Temperature  
Mean Temperature 37 °F 33 °F  
Max Temperature 63 °F 46 °F 78 °F (2011)
Min Temperature 10 °F 20 °F -7 °F (1978)
Degree Days  
Heating Degree Days 28    
Moisture  
Dew Point 19 °F    
Average Humidity 54    
Maximum Humidity 84    
Minimum Humidity 24    
Precipitation  
Precipitation 0.00 in 0.01 in 0.07 in (1998)
Month to date precipitation 0.05 0.28  
Year to date precipitation 0.14 0.73  
Sea Level Pressure  
Sea Level Pressure 30.15 in    
Wind  
Wind Speed 8 mph (West)    
Max Wind Speed 20 mph    
Max Gust Speed 30 mph    
Visibility 10 miles    
Events      
T = Trace of Precipitation, MM = Missing Value Source: NWS Daily Summary

Daily Weather History Graph

Daily Weather History Graph

Search for Another Location

Airport:

Trip Planner

Search our weather history database for the weather conditions in past years. The results will help you decide how hot, cold, wet, or windy it might be!

Date:

Astronomy

Feb. 16, 2013 Rise Set
Actual Time 7:29 AM CST 6:17 PM CST
Civil Twilight 7:02 AM CST 6:45 PM CST
Nautical Twilight 6:30 AM CST 7:16 PM CST
Astronomical Twilight 5:59 AM CST 7:47 PM CST
Moon 10:46 AM CST (2/16) 12:16 AM CST (2/16)
Length of Visible Light 11h 42m
Length of Day
10h 48m
Waxing Crescent, 39% of the Moon is Illuminated
Feb 16
Waxing Crescent
Feb 17
First Quarter
Feb 25
Full
Mar 4
Last Quarter
Mar 11
New

Hourly Weather History & Observations

Time (CST) Temp. Windchill Dew Point Humidity Pressure Visibility Wind Dir Wind Speed Gust Speed Precip Events Conditions
12:53 AM 15.1 °F 5.2 °F 8.1 °F 74% 30.42 in 10.0 mi West 6.9 mph - N/A   Clear
1:53 AM 12.0 °F - 7.0 °F 80% 30.40 in 10.0 mi Calm Calm - N/A   Clear
2:53 AM 15.1 °F 5.2 °F 10.0 °F 80% 30.40 in 10.0 mi West 6.9 mph - N/A   Overcast
3:53 AM 17.1 °F - 12.0 °F 81% 30.35 in 10.0 mi Calm Calm - N/A   Mostly Cloudy
4:53 AM 18.0 °F 12.7 °F 14.0 °F 84% 30.32 in 10.0 mi SW 3.5 mph - N/A   Overcast
5:53 AM 21.0 °F 13.4 °F 15.1 °F 78% 30.28 in 10.0 mi WSW 5.8 mph - N/A   Mostly Cloudy
6:53 AM 24.1 °F 16.0 °F 16.0 °F 71% 30.25 in 10.0 mi SW 6.9 mph - N/A   Overcast
7:53 AM 25.0 °F 16.3 °F 17.1 °F 72% 30.22 in 10.0 mi SSW 8.1 mph - N/A   Overcast
8:53 AM 28.9 °F 19.8 °F 19.0 °F 67% 30.20 in 10.0 mi WSW 10.4 mph - N/A   Overcast
9:53 AM 37.0 °F 30.4 °F 21.9 °F 54% 30.15 in 10.0 mi WSW 9.2 mph 18.4 mph N/A   Overcast
10:53 AM 50.0 °F - 24.1 °F 36% 30.11 in 10.0 mi WNW 15.0 mph 21.9 mph N/A   Clear
11:53 AM 55.0 °F - 24.1 °F 30% 30.08 in 10.0 mi NW 18.4 mph 28.8 mph N/A   Clear
12:53 PM 57.9 °F - 24.1 °F 27% 30.06 in 10.0 mi NNW 19.6 mph 29.9 mph N/A   Clear
1:53 PM 60.1 °F - 24.1 °F 25% 30.05 in 10.0 mi NW 19.6 mph 27.6 mph N/A   Clear
2:53 PM 61.0 °F - 24.1 °F 24% 30.02 in 10.0 mi NNW 13.8 mph 23.0 mph N/A   Scattered Clouds
3:53 PM 60.1 °F - 23.0 °F 24% 30.01 in 10.0 mi NW 17.3 mph 26.5 mph N/A   Scattered Clouds
4:53 PM 60.1 °F - 25.0 °F 26% 30.01 in 10.0 mi WNW 9.2 mph - N/A   Overcast
5:53 PM 57.0 °F - 24.1 °F 28% 30.01 in 10.0 mi NNW 9.2 mph - N/A   Clear
6:53 PM 42.1 °F 39.2 °F 21.0 °F 43% 30.04 in 10.0 mi NW 4.6 mph - N/A   Clear
9:53 PM 36.0 °F 30.3 °F 21.9 °F 57% 30.01 in 10.0 mi West 6.9 mph - N/A   Clear
10:53 PM 34.0 °F 28.0 °F 21.9 °F 61% 29.99 in 10.0 mi WNW 6.9 mph - N/A   Clear
11:53 PM 30.9 °F 27.5 °F 21.9 °F 69% 29.98 in 10.0 mi WSW 3.5 mph - N/A   Clear